Location: Cudham
(51.3000°N, 0.0667°E)
Time: 00:38:32
(UTC+00:00)

Okean 1 - Pass Details

Date: 15 May 2026
Orbit: 458 x 474 km, 82.5° (Epoch: 9 June)

Event Time Altitude Azimuth Distance (km) Brightness Sun altitude
Exits shadow 21:26:23 21° 147° (SSE) 1,117 4.2 -12.4°
Maximum altitude 21:28:15 36° 93° (E) 764 3.7 -12.6°
Drops below altitude 10° 21:31:35 10° 26° (NNE) 1,654 6.2 -12.9°
Sets 21:33:47 0° 17° (NNE) 2,540 7.3 -13.1°
